Portada
METAR-TAF:

METAR-TAF

Aeroports :

Qeshm, Iran

latitud: 26-45-18N, longitud: 055-54-08E, altitud: 12 m

Observació

L'informe es va fer fa 33 minuts, a les 14:00 UTC
Vent 4 kt del Sud/Sud-Oest
Temperatura 35°C
Humitat 75%
Pressió 990 hPa
Visibilitat: 4000 m
calitja

METAR: OIKQ 141400Z 20004KT 4000 HZ NSC 35/30 Q0990 NOSIG

Hora: 19:03 (14:33 UTC)


TAF: manca

Observacions i pronòstics meteorològics de més de 4000 aeroports (METAR i TAF).

Les estacions disponibles són els punts grocs i vermells al mapa.

Posi el ratolí al punt desitjat per veure el nom de l'estació.

Feu clic per veure les observacions i els pronòstics meteorològics.

Per canviar el mapa: feu clic els botons verds amb una creu de color negre per apropar; al botó verd amb un guió per allunyar la imatge; o en les fletxes verdes per a mapes adjacents.


METAR-TAF: